| time (UTC) | temp F | wind direction | speed MPH | gust MPH | rain 1hr in | rain 24hr in | rain mn in | humidity % | barometer mb |
| 20260505061507 | 51 | 288 | 1.0 | 6.0 | 0.00 | 0.00 | 0.00 | 89 | 1011.3 |
| 20260505060004 | 51 | 236 | 0.0 | 6.0 | 0.00 | 0.00 | 0.00 | 89 | 1011.4 |
| 20260505054504 | 51 | 285 | 1.0 | 5.0 | 0.00 | 0.00 | 0.00 | 89 | 1011.4 |
| 20260505053003 | 51 | 228 | 1.0 | 10.0 | 0.00 | 0.00 | 0.00 | 89 | 1011.3 |
| 20260505051502 | 51 | 275 | 1.0 | 6.0 | 0.00 | 0.00 | 0.00 | 88 | 1011.4 |
| 20260505041603 | 51 | 222 | 0.0 | 5.0 | 0.00 | 0.00 | 0.00 | 87 | 1011.8 |
| 20260505040056 | 51 | 270 | 0.0 | 6.0 | 0.00 | 0.00 | 0.00 | 86 | 1011.7 |
| 20260505034551 | 51 | 283 | 1.0 | 6.0 | 0.00 | 0.00 | 0.00 | 86 | 1011.9 |
| 20260505033051 | 51 | 234 | 0.0 | 4.0 | 0.00 | 0.00 | 0.00 | 86 | 1011.9 |
| 20260505031552 | 51 | 239 | 0.0 | 5.0 | 0.00 | 0.00 | 0.00 | 85 | 1012.1 |
| 20260505030109 | 51 | 249 | 0.0 | 4.0 | 0.00 | 0.00 | 0.00 | 85 | 1012.0 |
| 20260505024550 | 51 | 297 | 1.0 | 6.0 | 0.00 | 0.00 | 0.00 | 85 | 1012.0 |
| 20260505023046 | 51 | 260 | 0.0 | 5.0 | 0.00 | 0.00 | 0.00 | 84 | 1012.1 |
| 20260505021546 | 52 | 260 | 0.0 | 9.0 | 0.00 | 0.00 | 0.00 | 84 | 1012.1 |
| 20260505020045 | 52 | 288 | 1.0 | 7.0 | 0.00 | 0.00 | 0.00 | 83 | 1012.1 |
| 20260505014602 | 52 | 215 | 4.0 | 13.0 | 0.00 | 0.00 | 0.00 | 83 | 1011.9 |
| 20260505013049 | 52 | 273 | 2.0 | 8.0 | 0.00 | 0.00 | 0.00 | 82 | 1011.8 |
| 20260505011543 | 52 | 252 | 1.0 | 10.0 | 0.00 | 0.00 | 0.00 | 80 | 1011.6 |
| 20260505010051 | 53 | 267 | 0.0 | 7.0 | 0.00 | 0.00 | 0.00 | 79 | 1011.3 |
| 20260505004547 | 53 | 218 | 0.0 | 12.0 | 0.00 | 0.00 | 0.00 | 77 | 1011.2 |
| 20260505003053 | 53 | 234 | 3.0 | 12.0 | 0.00 | 0.00 | 0.00 | 75 | 1011.0 |
| 20260505001540 | 54 | 225 | 0.0 | 11.0 | 0.00 | 0.00 | 0.00 | 73 | 1010.6 |
| 20260505000037 | 54 | 284 | 2.0 | 16.0 | 0.00 | 0.00 | 0.00 | 72 | 1010.4 |
| 20260504234534 | 54 | 285 | 5.0 | 11.0 | 0.00 | 0.00 | 0.00 | 71 | 1010.3 |
| 20260504233037 | 55 | 246 | 2.0 | 12.0 | 0.00 | 0.00 | 0.00 | 72 | 1010.2 |
| 20260504231534 | 56 | 252 | 4.0 | 16.0 | 0.00 | 0.00 | 0.00 | 70 | 1009.9 |
| 20260504230033 | 56 | 226 | 2.0 | 14.0 | 0.00 | 0.00 | 0.00 | 67 | 1010.0 |
| 20260504224532 | 58 | 292 | 1.0 | 15.0 | 0.00 | 0.00 | 0.00 | 64 | 1009.8 |
| 20260504223041 | 59 | 257 | 3.0 | 12.0 | 0.00 | 0.00 | 0.00 | 60 | 1009.8 |
| 20260504221531 | 60 | 25 | 3.0 | 13.0 | 0.00 | 0.00 | 0.00 | 58 | 1009.7 |
| 20260504220032 | 60 | 313 | 5.0 | 14.0 | 0.00 | 0.00 | 0.00 | 55 | 1009.5 |
| 20260504214531 | 60 | 283 | 4.0 | 18.0 | 0.00 | 0.00 | 0.00 | 55 | 1009.6 |
| 20260504213030 | 61 | 249 | 4.0 | 17.0 | 0.00 | 0.00 | 0.00 | 54 | 1009.4 |
| 20260504211538 | 61 | 269 | 5.0 | 22.0 | 0.00 | 0.00 | 0.00 | 53 | 1009.5 |
| 20260504210029 | 62 | 297 | 5.0 | 17.0 | 0.00 | 0.00 | 0.00 | 52 | 1009.5 |
| 20260504204529 | 62 | 280 | 6.0 | 15.0 | 0.00 | 0.00 | 0.00 | 53 | 1009.4 |
| 20260504203027 | 62 | 286 | 5.0 | 20.0 | 0.00 | 0.00 | 0.00 | 52 | 1009.3 |
| 20260504201526 | 63 | 242 | 5.0 | 18.0 | 0.00 | 0.00 | 0.00 | 50 | 1009.3 |
| 20260504200026 | 64 | 271 | 3.0 | 17.0 | 0.00 | 0.00 | 0.00 | 46 | 1009.2 |
| 20260504194524 | 64 | 300 | 6.0 | 23.0 | 0.00 | 0.00 | 0.00 | 44 | 1009.1 |
| 20260504193023 | 65 | 22 | 2.0 | 18.0 | 0.00 | 0.00 | 0.00 | 44 | 1009.4 |
| 20260504191526 | 64 | 271 | 10.0 | 23.0 | 0.00 | 0.00 | 0.00 | 44 | 1009.5 |
| 20260504190021 | 65 | 50 | 5.0 | 22.0 | 0.00 | 0.00 | 0.00 | 42 | 1009.7 |
| 20260504184530 | 65 | 259 | 5.0 | 23.0 | 0.00 | 0.00 | 0.00 | 42 | 1009.7 |
| 20260504183021 | 66 | 301 | 5.0 | 15.0 | 0.00 | 0.00 | 0.00 | 43 | 1009.9 |
| 20260504181519 | 65 | 252 | 3.0 | 19.0 | 0.00 | 0.00 | 0.00 | 47 | 1009.7 |
| 20260504180019 | 65 | 262 | 10.0 | 26.0 | 0.00 | 0.00 | 0.00 | 44 | 1009.6 |
| 20260504174518 | 65 | 252 | 9.0 | 29.0 | 0.00 | 0.00 | 0.00 | 43 | 1009.6 |
| 20260504173016 | 65 | 284 | 8.0 | 15.0 | 0.00 | 0.00 | 0.00 | 43 | 1009.7 |
| 20260504171516 | 65 | 309 | 8.0 | 17.0 | 0.00 | 0.00 | 0.00 | 42 | 1009.7 |
| 20260504081534 | 45 | 254 | 0.0 | 1.0 | 0.00 | 0.00 | 0.00 | 74 | 1011.1 |